Santa Monica, CA

11:58 PM PDT on June 20, 2018 (GMT -0700)
Santa Monica Municipal

Weather History for KSMO - October, 2017

Change the Weather History Date:

Monday, October 9, 2017

  Actual Average Record
Temperature  
Mean Temperature 72 °F -  
Max Temperature 84 °F 78 °F 102 °F (1976)
Min Temperature 63 °F 59 °F 47 °F (1949)
Cooling Degree Days 8    
Growing Degree Days 22 (Base 50)    
Moisture  
Dew Point 57 °F    
Average Humidity 67    
Maximum Humidity 90    
Minimum Humidity 26    
Precipitation  
Precipitation 0.00 in - - ()
Sea Level Pressure  
Sea Level Pressure 29.88 in    
Wind  
Wind Speed 4 mph (SSE)    
Max Wind Speed 10 mph    
Max Gust Speed -    
Visibility 10 miles    
Events      
Averages and records for this station are not official NWS values.
T = Trace of Precipitation, MM = Missing Value Source: NWS Daily Summary

Daily Weather History Graph

Daily Weather History Graph

Search for Another Location

Airport or City:

Astronomy

Oct. 09, 2017 Rise Set
Actual Time 6:54 AM PDT 6:26 PM PDT
Civil Twilight 6:29 AM PDT 6:51 PM PDT
Nautical Twilight 6:00 AM PDT 7:20 PM PDT
Astronomical Twilight 5:31 AM PDT 7:49 PM PDT
Moon 9:50 PM PDT (10/9) 11:01 AM PDT (10/9)
Length of Visible Light 12h 22m
Length of Day
11h 32m
Waning Gibbous, 80% of the Moon is Illuminated
Oct 9
Waning Gibbous
Oct 12
Last Quarter
Oct 19
New
Oct 27
First Quarter
Nov 3
Full

Hourly Weather History & Observations

Time (PDT) Temp. Dew Point Humidity Pressure Visibility Wind Dir Wind Speed Gust Speed Precip Events Conditions
12:51 AM 66.9 °F 57.9 °F 73% 29.80 in 10.0 mi ESE 5.8 mph - N/A   Overcast
1:51 AM 66.0 °F 57.9 °F 75% 29.82 in 10.0 mi ESE 6.9 mph - N/A   Overcast
2:51 AM 64.9 °F 57.0 °F 75% 29.82 in 10.0 mi East 3.5 mph - N/A   Overcast
3:51 AM 66.0 °F 57.9 °F 75% 29.83 in 10.0 mi ESE 4.6 mph - N/A   Overcast
4:51 AM 66.0 °F 57.9 °F 75% 29.85 in 10.0 mi East 3.5 mph - N/A   Overcast
5:51 AM 64.9 °F 57.0 °F 75% 29.86 in 10.0 mi Calm Calm - N/A   Overcast
5:59 AM 64.0 °F 57.0 °F 78% 29.86 in 10.0 mi Calm Calm - N/A   Overcast
6:51 AM 63.0 °F 57.0 °F 81% 29.88 in 10.0 mi Calm Calm - N/A   Clear
7:51 AM 64.9 °F 57.0 °F 75% 29.89 in 10.0 mi Calm Calm - N/A   Clear
8:51 AM 66.9 °F 57.0 °F 70% 29.91 in 10.0 mi Calm Calm - N/A   Clear
9:51 AM 71.1 °F 55.0 °F 57% 29.92 in 10.0 mi Calm Calm - N/A   Clear
10:51 AM 73.0 °F 54.0 °F 51% 29.91 in 10.0 mi Variable 5.8 mph - N/A   Clear
11:51 AM 78.1 °F 50.0 °F 37% 29.91 in 10.0 mi Calm Calm - N/A   Clear
12:51 PM 82.9 °F 45.0 °F 26% 29.89 in 10.0 mi Calm Calm - N/A   Clear
1:51 PM 75.9 °F 60.1 °F 58% 29.87 in 10.0 mi SSW 10.4 mph - N/A   Clear
2:51 PM 73.9 °F 60.1 °F 62% 29.86 in 10.0 mi WSW 6.9 mph - N/A   Clear
3:51 PM 75.0 °F 61.0 °F 62% 29.86 in 10.0 mi SW 6.9 mph - N/A   Clear
4:51 PM 72.0 °F 57.9 °F 61% 29.86 in 10.0 mi WSW 9.2 mph - N/A   Smoke
5:13 PM 72.0 °F 57.0 °F 59% 29.87 in 10.0 mi WSW 8.1 mph - N/A   Mostly Cloudy
5:51 PM 72.0 °F 57.0 °F 59% 29.86 in 10.0 mi Variable 4.6 mph - N/A   Mostly Cloudy
6:51 PM 72.0 °F 55.9 °F 57% 29.88 in 10.0 mi Calm Calm - N/A   Overcast
7:51 PM 69.1 °F 61.0 °F 75% 29.89 in 10.0 mi Calm Calm - N/A   Clear
8:51 PM 66.9 °F 63.0 °F 87% 29.91 in 9.0 mi South 4.6 mph - N/A   Clear
9:51 PM 64.9 °F 62.1 °F 90% 29.93 in 9.0 mi Calm Calm - N/A   Clear
10:51 PM 66.0 °F 62.1 °F 87% 29.94 in 10.0 mi North 4.6 mph - N/A   Clear
11:51 PM 64.9 °F 54.0 °F 68% 29.93 in 10.0 mi Calm Calm - N/A   Clear